Time,TemperatureF,DewpointF,PressureIn,WindDirection,WindDirectionDegrees,WindSpeedMPH,WindSpeedGustMPH,Humidity,HourlyPrecipIn,Conditions,Clouds,dailyrainin,SoftwareType,DateUTC
2013-01-03 00:03:00,33.1,31.0,30.18,West,259,0.0,0.0,92,0.00,,,0.00,weatherlink.com 1.10,2013-01-03 08:03:00,
2013-01-03 00:18:00,32.7,31.0,30.18,NE,49,0.0,0.0,93,0.00,,,0.00,weatherlink.com 1.10,2013-01-03 08:18:00,
2013-01-03 00:34:00,32.9,31.0,30.18,NE,51,0.0,0.0,93,0.00,,,0.00,weatherlink.com 1.10,2013-01-03 08:34:00,
2013-01-03 00:49:00,32.6,31.0,30.18,ESE,114,0.0,0.0,93,0.00,,,0.00,weatherlink.com 1.10,2013-01-03 08:49:00,
2013-01-03 01:04:00,32.2,30.0,30.18,ESE,115,0.0,0.0,93,0.00,,,0.00,weatherlink.com 1.10,2013-01-03 09:04:00,
2013-01-03 01:19:00,31.5,30.0,30.18,ESE,114,0.0,0.0,93,0.00,,,0.00,weatherlink.com 1.10,2013-01-03 09:19:00,
2013-01-03 01:34:00,31.6,30.0,30.18,ENE,78,0.0,0.0,94,0.00,,,0.00,weatherlink.com 1.10,2013-01-03 09:34:00,
2013-01-03 01:49:00,32.3,31.0,30.18,ENE,77,0.0,0.0,94,0.00,,,0.00,weatherlink.com 1.10,2013-01-03 09:49:00,
2013-01-03 02:04:00,31.2,29.0,30.18,NW,321,0.0,0.0,93,0.00,,,0.00,weatherlink.com 1.10,2013-01-03 10:04:00,
2013-01-03 02:19:00,31.6,30.0,30.17,WSW,248,0.0,0.0,94,0.00,,,0.00,weatherlink.com 1.10,2013-01-03 10:19:00,
2013-01-03 02:34:00,30.8,29.0,30.18,SSW,194,1.0,2.0,93,0.00,,,0.00,weatherlink.com 1.10,2013-01-03 10:34:00,
2013-01-03 02:49:00,30.6,29.0,30.18,South,191,0.0,0.0,94,0.00,,,0.00,weatherlink.com 1.10,2013-01-03 10:49:00,
2013-01-03 03:04:00,30.7,29.0,30.18,ESE,119,0.0,0.0,94,0.00,,,0.00,weatherlink.com 1.10,2013-01-03 11:04:00,
2013-01-03 03:19:00,30.5,29.0,30.18,ENE,62,0.0,0.0,94,0.00,,,0.00,weatherlink.com 1.10,2013-01-03 11:19:00,
2013-01-03 03:34:00,30.8,29.0,30.18,ENE,61,0.0,0.0,94,0.00,,,0.00,weatherlink.com 1.10,2013-01-03 11:34:00,
2013-01-03 03:49:00,30.4,29.0,30.18,ENE,61,0.0,0.0,94,0.00,,,0.00,weatherlink.com 1.10,2013-01-03 11:49:00,
2013-01-03 04:04:00,29.6,28.0,30.18,SE,136,0.0,0.0,94,0.00,,,0.00,weatherlink.com 1.10,2013-01-03 12:04:00,
2013-01-03 04:19:00,29.5,28.0,30.18,SE,138,0.0,0.0,94,0.00,,,0.00,weatherlink.com 1.10,2013-01-03 12:19:00,
2013-01-03 04:34:00,29.5,28.0,30.18,SE,137,0.0,0.0,95,0.00,,,0.00,weatherlink.com 1.10,2013-01-03 12:34:00,
2013-01-03 04:49:00,29.6,28.0,30.18,ESE,103,0.0,0.0,95,0.00,,,0.00,weatherlink.com 1.10,2013-01-03 12:49:00,
2013-01-03 05:04:00,30.7,30.0,30.17,East,101,0.0,0.0,95,0.00,,,0.00,weatherlink.com 1.10,2013-01-03 13:04:00,
2013-01-03 05:19:00,29.7,28.0,30.17,East,101,0.0,0.0,94,0.00,,,0.00,weatherlink.com 1.10,2013-01-03 13:19:00,
2013-01-03 05:34:00,29.0,28.0,30.18,SSW,195,0.0,0.0,94,0.00,,,0.00,weatherlink.com 1.10,2013-01-03 13:34:00,
2013-01-03 05:49:00,28.9,28.0,30.19,SSW,211,0.0,0.0,95,0.00,,,0.00,weatherlink.com 1.10,2013-01-03 13:49:00,
2013-01-03 06:04:00,29.0,28.0,30.19,SSW,210,0.0,0.0,95,0.00,,,0.00,weatherlink.com 1.10,2013-01-03 14:04:00,
2013-01-03 06:19:00,29.2,28.0,30.18,ENE,77,0.0,0.0,95,0.00,,,0.00,weatherlink.com 1.10,2013-01-03 14:19:00,
2013-01-03 06:34:00,28.8,28.0,30.19,East,79,0.0,0.0,95,0.00,,,0.00,weatherlink.com 1.10,2013-01-03 14:34:00,
2013-01-03 06:49:00,28.6,27.0,30.19,ENE,78,0.0,0.0,95,0.00,,,0.00,weatherlink.com 1.10,2013-01-03 14:49:00,
2013-01-03 07:04:00,28.3,27.0,30.20,East,79,0.0,0.0,95,0.00,,,0.00,weatherlink.com 1.10,2013-01-03 15:04:00,
2013-01-03 07:19:00,28.3,27.0,30.19,SW,215,0.0,0.0,95,0.00,,,0.00,weatherlink.com 1.10,2013-01-03 15:19:00,
2013-01-03 07:34:00,28.3,27.0,30.20,SW,222,0.0,0.0,95,0.00,,,0.00,weatherlink.com 1.10,2013-01-03 15:34:00,
2013-01-03 07:49:00,28.4,27.0,30.21,SSW,204,0.0,0.0,95,0.00,,,0.00,weatherlink.com 1.10,2013-01-03 15:49:00,
2013-01-03 08:04:00,28.8,28.0,30.22,ESE,115,0.0,3.0,96,0.00,,,0.00,weatherlink.com 1.10,2013-01-03 16:04:00,
2013-01-03 08:19:00,29.4,28.0,30.23,SE,128,3.0,3.0,96,0.00,,,0.00,weatherlink.com 1.10,2013-01-03 16:19:00,
2013-01-03 08:35:00,30.8,30.0,30.23,ESE,110,0.0,3.0,96,0.00,,,0.00,weatherlink.com 1.10,2013-01-03 16:35:00,
2013-01-03 08:50:00,32.4,31.0,30.23,ESE,107,0.0,0.0,96,0.00,,,0.00,weatherlink.com 1.10,2013-01-03 16:50:00,
2013-01-03 09:05:00,33.1,32.0,30.23,SE,135,0.0,0.0,95,0.00,,,0.00,weatherlink.com 1.10,2013-01-03 17:05:00,
2013-01-03 09:20:00,34.8,34.0,30.24,SW,222,0.0,0.0,95,0.00,,,0.00,weatherlink.com 1.10,2013-01-03 17:20:00,
2013-01-03 09:35:00,36.1,34.0,30.24,West,270,0.0,0.0,93,0.00,,,0.00,weatherlink.com 1.10,2013-01-03 17:35:00,
2013-01-03 09:50:00,37.1,35.0,30.25,SW,221,0.0,2.0,90,0.00,,,0.00,weatherlink.com 1.10,2013-01-03 17:50:00,
2013-01-03 10:05:00,39.2,35.0,30.26,SSW,207,0.0,3.0,86,0.00,,,0.00,weatherlink.com 1.10,2013-01-03 18:05:00,
2013-01-03 10:20:00,41.4,37.0,30.26,SW,225,0.0,0.0,83,0.00,,,0.00,weatherlink.com 1.10,2013-01-03 18:20:00,
2013-01-03 10:35:00,42.6,36.0,30.26,SSE,149,0.0,0.0,77,0.00,,,0.00,weatherlink.com 1.10,2013-01-03 18:35:00,
2013-01-03 10:50:00,43.3,36.0,30.25,NW,311,0.0,1.0,75,0.00,,,0.00,weatherlink.com 1.10,2013-01-03 18:50:00,
2013-01-03 11:05:00,45.9,38.0,30.25,SW,225,0.0,0.0,73,0.00,,,0.00,weatherlink.com 1.10,2013-01-03 19:05:00,
2013-01-03 12:05:00,51.3,38.0,30.23,SSW,195,2.0,5.0,60,0.00,,,0.00,weatherlink.com 1.10,2013-01-03 20:05:00,
2013-01-03 12:20:00,50.9,37.0,30.22,WSW,244,3.0,4.0,60,0.00,,,0.00,weatherlink.com 1.10,2013-01-03 20:20:00,
2013-01-03 12:50:00,51.6,39.0,30.21,WSW,256,2.0,5.0,63,0.00,,,0.00,weatherlink.com 1.10,2013-01-03 20:50:00,
2013-01-03 13:05:00,51.6,38.0,30.21,SSW,203,6.0,6.0,60,0.00,,,0.00,weatherlink.com 1.10,2013-01-03 21:05:00,
2013-01-03 13:20:00,52.7,39.0,30.21,SSW,205,3.0,6.0,61,0.00,,,0.00,weatherlink.com 1.10,2013-01-03 21:20:00,
2013-01-03 13:35:00,53.7,40.0,30.21,SSW,204,3.0,6.0,60,0.00,,,0.00,weatherlink.com 1.10,2013-01-03 21:35:00,
2013-01-03 13:50:00,52.8,39.0,30.21,WSW,242,2.0,4.0,59,0.00,,,0.00,weatherlink.com 1.10,2013-01-03 21:50:00,
2013-01-03 14:05:00,53.7,39.0,30.20,West,271,0.0,4.0,58,0.00,,,0.00,weatherlink.com 1.10,2013-01-03 22:05:00,
2013-01-03 14:20:00,53.9,39.0,30.20,WNW,284,0.0,3.0,58,0.00,,,0.00,weatherlink.com 1.10,2013-01-03 22:20:00,
2013-01-03 14:35:00,55.5,41.0,30.20,WSW,245,1.0,4.0,59,0.00,,,0.00,weatherlink.com 1.10,2013-01-03 22:35:00,
2013-01-03 14:51:00,56.4,42.0,30.20,WNW,293,1.0,3.0,60,0.00,,,0.00,weatherlink.com 1.10,2013-01-03 22:51:00,
2013-01-03 15:06:00,57.2,42.0,30.21,WNW,282,1.0,4.0,58,0.00,,,0.00,weatherlink.com 1.10,2013-01-03 23:06:00,
2013-01-03 15:21:00,56.9,41.0,30.21,SW,221,0.0,4.0,55,0.00,,,0.00,weatherlink.com 1.10,2013-01-03 23:21:00,
2013-01-03 15:36:00,58.0,40.0,30.21,SW,221,1.0,4.0,52,0.00,,,0.00,weatherlink.com 1.10,2013-01-03 23:36:00,
2013-01-03 15:51:00,57.7,40.0,30.22,SSW,211,3.0,5.0,52,0.00,,,0.00,weatherlink.com 1.10,2013-01-03 23:51:00,
2013-01-03 16:06:00,56.5,40.0,30.23,SSW,198,2.0,5.0,54,0.00,,,0.00,weatherlink.com 1.10,2013-01-04 00:06:00,
2013-01-03 16:21:00,55.4,40.0,30.23,South,181,3.0,4.0,56,0.00,,,0.00,weatherlink.com 1.10,2013-01-04 00:21:00,
2013-01-03 16:36:00,54.5,38.0,30.23,SW,232,2.0,3.0,55,0.00,,,0.00,weatherlink.com 1.10,2013-01-04 00:36:00,
2013-01-03 16:51:00,53.8,40.0,30.23,South,173,0.0,3.0,59,0.00,,,0.00,weatherlink.com 1.10,2013-01-04 00:51:00,
2013-01-03 17:06:00,52.8,40.0,30.23,SW,226,0.0,2.0,63,0.00,,,0.00,weatherlink.com 1.10,2013-01-04 01:06:00,
2013-01-03 17:21:00,51.9,40.0,30.23,SE,131,0.0,0.0,65,0.00,,,0.00,weatherlink.com 1.10,2013-01-04 01:21:00,
2013-01-03 17:36:00,50.8,41.0,30.23,SE,125,0.0,0.0,68,0.00,,,0.00,weatherlink.com 1.10,2013-01-04 01:36:00,
2013-01-03 17:51:00,49.6,40.0,30.24,SE,125,0.0,0.0,70,0.00,,,0.00,weatherlink.com 1.10,2013-01-04 01:51:00,
2013-01-03 18:06:00,48.3,40.0,30.24,SE,124,0.0,0.0,73,0.00,,,0.00,weatherlink.com 1.10,2013-01-04 02:06:00,
2013-01-03 18:21:00,47.7,40.0,30.24,SE,129,0.0,0.0,74,0.00,,,0.00,weatherlink.com 1.10,2013-01-04 02:21:00,
2013-01-03 18:36:00,46.8,39.0,30.24,ENE,77,0.0,0.0,75,0.00,,,0.00,weatherlink.com 1.10,2013-01-04 02:36:00,
2013-01-03 18:51:00,45.9,39.0,30.24,ENE,77,0.0,0.0,76,0.00,,,0.00,weatherlink.com 1.10,2013-01-04 02:51:00,
2013-01-03 19:06:00,45.3,39.0,30.24,ENE,77,0.0,0.0,78,0.00,,,0.00,weatherlink.com 1.10,2013-01-04 03:06:00,
2013-01-03 19:21:00,44.2,38.0,30.24,SW,231,0.0,0.0,79,0.00,,,0.00,weatherlink.com 1.10,2013-01-04 03:21:00,
2013-01-03 19:36:00,43.5,38.0,30.25,SW,231,0.0,0.0,81,0.00,,,0.00,weatherlink.com 1.10,2013-01-04 03:36:00,
2013-01-03 19:51:00,43.6,38.0,30.24,East,98,0.0,0.0,82,0.00,,,0.00,weatherlink.com 1.10,2013-01-04 03:51:00,
2013-01-03 20:06:00,42.8,38.0,30.25,East,101,0.0,0.0,82,0.00,,,0.00,weatherlink.com 1.10,2013-01-04 04:06:00,
2013-01-03 20:21:00,42.2,37.0,30.25,NE,47,0.0,0.0,83,0.00,,,0.00,weatherlink.com 1.10,2013-01-04 04:21:00,
2013-01-03 20:36:00,42.1,38.0,30.25,NE,47,0.0,0.0,85,0.00,,,0.00,weatherlink.com 1.10,2013-01-04 04:36:00,
2013-01-03 20:51:00,40.7,37.0,30.25,NE,47,0.0,0.0,85,0.00,,,0.00,weatherlink.com 1.10,2013-01-04 04:51:00,
2013-01-03 21:21:00,40.0,37.0,30.26,NE,47,0.0,0.0,89,0.00,,,0.00,weatherlink.com 1.10,2013-01-04 05:21:00,
2013-01-03 21:36:00,40.3,37.0,30.27,NE,46,0.0,0.0,88,0.00,,,0.00,weatherlink.com 1.10,2013-01-04 05:36:00,
2013-01-03 21:51:00,39.3,36.0,30.27,NE,47,0.0,0.0,88,0.00,,,0.00,weatherlink.com 1.10,2013-01-04 05:51:00,
2013-01-03 22:06:00,39.1,36.0,30.27,NE,44,0.0,0.0,89,0.00,,,0.00,weatherlink.com 1.10,2013-01-04 06:06:00,
2013-01-03 22:21:00,38.8,36.0,30.28,NE,44,0.0,0.0,89,0.00,,,0.00,weatherlink.com 1.10,2013-01-04 06:21:00,
2013-01-03 22:36:00,39.1,37.0,30.28,NE,44,0.0,0.0,90,0.00,,,0.00,weatherlink.com 1.10,2013-01-04 06:36:00,
2013-01-03 22:51:00,38.2,36.0,30.27,NE,44,0.0,0.0,90,0.00,,,0.00,weatherlink.com 1.10,2013-01-04 06:51:00,
2013-01-03 23:06:00,38.5,36.0,30.27,NE,50,0.0,0.0,91,0.00,,,0.00,weatherlink.com 1.10,2013-01-04 07:06:00,
2013-01-03 23:21:00,37.9,35.0,30.27,NE,51,0.0,0.0,89,0.00,,,0.00,weatherlink.com 1.10,2013-01-04 07:21:00,
2013-01-03 23:36:00,37.1,35.0,30.27,NE,51,0.0,0.0,91,0.00,,,0.00,weatherlink.com 1.10,2013-01-04 07:36:00,
2013-01-03 23:51:00,36.6,34.0,30.27,NE,51,0.0,0.0,91,0.00,,,0.00,weatherlink.com 1.10,2013-01-04 07:51:00,